Simultaneous Nadir Overpasses (SNOs) Predictions

Prediction of SNOs between AQUA and METOP-B Satellite Orbit:

Table of predicted SNOs for the next 14.0 days since TLE Epoch: 7/3/2020
Index Date (AQUA) Time (AQUA) Lat,Lon (AQUA) SZA (AQUA ) Date (METOP-B) Time (METOP-B) Lat,Lon (METOP-B) SZA (METOP-B ) Distance(km) Time Diff (sec)
1 07/06/2020 10:21:53 73.81, 18.84 51.24 07/06/2020 10:21:01 73.81, 18.91 51.25 2.44 52
2 07/06/2020 11:11:20 -73.87,-173.65 128.70 07/06/2020 11:11:42 -73.86,-173.64 128.70 0.34 22
3 07/09/2020 05:56:08 73.81, 85.28 51.57 07/09/2020 05:55:22 73.82, 85.35 51.59 2.70 46
4 07/09/2020 06:45:35 -73.86,-107.21 128.37 07/09/2020 06:46:03 -73.87,-107.20 128.36 1.11 28
5 07/12/2020 01:30:22 73.81, 151.71 51.95 07/12/2020 01:29:42 73.83, 151.77 51.97 3.04 40
6 07/12/2020 02:19:49 -73.87, -40.77 127.99 07/12/2020 02:20:23 -73.88, -40.78 127.98 1.80 34
7 07/14/2020 21:04:37 73.82,-141.86 52.38 07/14/2020 21:04:03 73.84,-141.80 52.40 3.13 34
8 07/14/2020 21:54:04 -73.87, 25.65 127.56 07/14/2020 21:54:44 -73.89, 25.65 127.55 1.94 40
9 07/17/2020 16:38:52 73.82, -75.44 52.86 07/17/2020 16:38:24 73.84, -75.38 52.88 2.91 28
10 07/17/2020 17:28:19 -73.88, 92.07 127.08 07/17/2020 17:29:05 -73.89, 92.07 127.07 1.53 46
